User: anonymous   Login
Location: Unspecified
(0.0000°N, 0.0000°E)
Time: 07:00:16
(UTC+00:00)
Language:

XM-4 - Orbit

View from above orbital plane
View from above orbital plane
View from above satellite
View from above satellite

Ground track
Ground track

The orbit data is extracted from the following two-line orbital elements,

1 29520U 06049A   21210.02312528 -.00000032  00000-0  00000+0 0  9991
2 29520   0.0464 269.3031 0000298 271.1247  19.5431  1.00272782 54103
Epoch (UTC): 29 July 2021 00:33:18
Eccentricity: 0.0000298
inclination: 0.0464°
perigee height: 35784 km
apogee height: 35787 km
right ascension of ascending node: 269.3031°
argument of perigee: 271.1247°
revolutions per day: 1.00272782
mean anomaly at epoch: 19.5431°
orbit number at epoch: 5410

The dashed part of the orbit path shows where the satellite is in the earth's shadow,  

DLR